This is the latest recevied weather packets stored in our database for station/object KC5DAQ-24. If no packets are shown the sender has not sent any weather packets the latest 1 day(s).
| Time | Temp. | Humidity | Pressure | Rain* | Wind** | Luminosity | Snow |
|---|---|---|---|---|---|---|---|
| 1778004820 | 27.22° C | 81% | 1008 hPa | 0 mm | 4.02 m/s, 220° | 206 W/m² | - |
| 1778004761 | 27.22° C | 81% | 1008 hPa | 0 mm | 4.02 m/s, 220° | 206 W/m² | - |
| 1778004700 | 27.22° C | 81% | 1007.9 hPa | 0 mm | 4.02 m/s, 220° | 206 W/m² | - |
| 1778004639 | 27.22° C | 81% | 1008 hPa | 0 mm | 4.02 m/s, 220° | 206 W/m² | - |
| 1778004581 | 27.22° C | 81% | 1008.1 hPa | 0 mm | 4.02 m/s, 233° | 283 W/m² | - |
| 1778004520 | 26.67° C | 81% | 1008 hPa | 0 mm | 2.68 m/s, 275° | 283 W/m² | - |
| 1778004460 | 26.67° C | 81% | 1008 hPa | 0 mm | 2.68 m/s, 275° | 283 W/m² | - |
| 1778004400 | 26.67° C | 81% | 1008.1 hPa | 0 mm | 2.24 m/s, 275° | 287 W/m² | - |
| 1778004337 | 26.67° C | 81% | 1008.1 hPa | 0 mm | 1.79 m/s, 0° | 295 W/m² | - |
| 1778004273 | 26.67° C | 81% | 1008.1 hPa | 0 mm | 1.79 m/s, 0° | 292 W/m² | - |
| 1778004212 | 26.67° C | 81% | 1008.1 hPa | 0 mm | 0.89 m/s, 0° | - | - |
| 1778001261 | - | - | 1008.3 hPa | 0 mm | 2.24 m/s, 0° | - | - |
| 1778001202 | 26.67° C | 82% | 1008.4 hPa | 0 mm | 2.24 m/s, 0° | - | - |
| 1778001141 | 26.67° C | 82% | 1008.4 hPa | 0 mm | 2.24 m/s, 0° | 135 W/m² | - |
| 1778001082 | 26.67° C | 82% | 1008.4 hPa | 0 mm | 2.24 m/s, 0° | 135 W/m² | - |
| 1778001019 | 26.67° C | 82% | 1008.4 hPa | 0 mm | 2.24 m/s, 0° | 135 W/m² | - |
| 1778000960 | 26.67° C | 82% | 1008.4 hPa | 0 mm | 2.24 m/s, 0° | 135 W/m² | - |
| 1778000900 | 26.67° C | 82% | 1008.5 hPa | 0 mm | 2.24 m/s, 0° | 135 W/m² | - |
| 1778000839 | 26.67° C | 82% | 1008.4 hPa | 0 mm | 2.24 m/s, 0° | 135 W/m² | - |
| 1778000779 | 26.67° C | 82% | 1008.4 hPa | 0 mm | 2.24 m/s, 0° | 135 W/m² | - |
| 1778000719 | 26.67° C | 82% | 1008.5 hPa | 0 mm | 2.24 m/s, 0° | 135 W/m² | - |
| 1778000659 | 26.67° C | 82% | 1008.5 hPa | 0 mm | 2.24 m/s, 0° | 135 W/m² | - |
| 1778000597 | 26.67° C | 82% | 1008.5 hPa | 0 mm | 2.68 m/s, 0° | 135 W/m² | - |
| 1778000539 | 26.11° C | 82% | 1008.5 hPa | 0 mm | 2.68 m/s, 0° | 183 W/m² | - |
| 1778000480 | 26.11° C | 82% | 1008.6 hPa | 0 mm | 3.13 m/s, 0° | 183 W/m² | - |
* Rain latest hour (hover to see other rain measurements)
** Current wind speed in m/s (hover to see current wind gust speed)